www.pogodaiklimat.ru

Погода и климат >> Архив погоды >> Китай >> Синьцзян-Уйгурский автономный район >> Хобоксар


ПОГОДА в Хобоксаре

  • Прогноз погоды в Хобоксаре
  • Монитор погоды в Хобоксаре

АРХИВ ПОГОДЫ в Хобоксаре

Время (UTC), дата Ветер
(напр.,м/с)
 
Видим.   Явления Облачность Т
(С)
Тd
(С)
f
(%)
Тe
(С)
Тes
(С)
Комфортность P
(гПа)
Po
(гПа)
Тmin
(С)
Tmax
(С)
R
(мм)
R24
(мм)
S
(см)
00 16.04 З 13
{18}
30 км 9/9 1500 м
[]
+10.2 +3.3 62 +6 +6 998.9 854.8
03 16.04 З 12
{24}
30 км 9/9 1500 м
[]
+9.6 +2.0 59 +5 +5 1002.4 857.3
06 16.04 З 13
{24}
30 км 9/9 1500 м
[]
+13.3 +0.7 42 +10 +10 1003.3 858.0 +8.7
09 16.04 З 13
{20}
15 км 9/9 1500 м
[]
+14.5 -1.6 33 +12 +12 1002.8 859.9
12 16.04 З 11
{20}
30 км 9/9 1500 м
[]
+12.4 -1.2 39 +9 +9 1005.0 858.8
15 16.04 С 8
{19}
30 км н/о +9.7 +1.6 57 +6 +6 1008.9 862.9
18 16.04 СЗ 5 30 км ?/? +7.8 -0.7 55 +4 +4 1009.8 862.6 +14.6
21 16.04 З 6 30 км н/о +7.3 -3.8 45 +4 +4 1008.9 861.7
00 17.04 СВ 3 30 км 9/9 1500 м
[]
+3.9 -1.3 69 0 0 1010.8 862.3
03 17.04 ЮВ 3 30 км 8/8 1500 м
[]
+6.5 -1.6 56 +4 +5 1012.7 864.6
06 17.04 ЮВ 2 30 км 9/9 1500 м
[]
+9.8 -1.3 46 +9 +10 1012.9 864.4 +3.6
09 17.04 ЮВ 5 30 км 9/9 1500 м
[]
+10.8 -1.3 43 +8 +9 1012.5 866.5
12 17.04 В 4 30 км 9/9 1500 м
[]
+9.2 -0.4 51 +7 +7 1014.5 864.7
15 17.04 В 2 30 км н/о +6.8 -0.4 60 +5 +5 1016.1 867.6
18 17.04 З 3 30 км ?/? +4.4 -2.9 59 +1 +1 1015.6 865.9 +11.3
21 17.04 С 2 30 км н/о +2.0 -3.7 66 -1 -1 1014.8 864.1
00 18.04 З 3 30 км 6/6
[]
+1.9 -6.2 55 -2 -2 1014.9 864.5
03 18.04 ЮЗ 5 30 км 9/9 1500 м
[]
+10.7 -2.0 41 +8 +9 1013.2 867.0
06 18.04 З 10 30 км 9/9 1500 м
[]
+14.1 -1.9 33 +12 +12 1012.5 864.3 +1.2
09 18.04 З 14
{18}
30 км 9/9 1500 м
[]
+12.8 +1.5 46 +9 +9 1012.9 867.8
12 18.04 З 11
{21}
30 км 8/8 1500 м
[]
+12.6 +0.4 43 +9 +9 1013.4 864.1
15 18.04 З 8
{21}
30 км н/о +7.2 -1.7 53 +3 +3 1015.2 867.1
18 18.04 ЮЗ 9
{19}
30 км ?/? +3.5 -6.2 49 -3 -3 1016.3 867.3 +15.0
21 18.04 З 14
{19}
30 км ?/? +5.0 -6.2 44 -2 -2 1014.7 865.5
00 19.04 ЮЗ 6
{19}
30 км 9/9 1500 м
[]
+4.7 -6.5 44 0 0 1016.6 867.5
03 19.04 В 6
{18}
30 км 4/4 1500 м
[]
+5.4 -5.9 44 +1 +3 1019.4 869.8
06 19.04 В 3 30 км 9/9 1500 м
[]
+7.5 -4.6 42 +5 +7 1019.1 868.1 +3.0
09 19.04 ЮВ 3 30 км 9/9 1500 м
[]
+11.0 -4.6 33 +10 +11 1015.4 869.1
12 19.04 В 4 30 км 10/10 1500 м
[]
+8.9 -5.7 35 +7 +7 1015.5 865.6
15 19.04 СВ 2 30 км н/о +6.9 -6.8 37 +5 +5 1015.5 867.2
18 19.04 С 4 17 км слаб. дождь ?/? +5.4 -0.9 64 +2 +2 1015.0 865.0 +11.5 0.2
21 19.04 ЮЗ 4 30 км в посл. час дождь ?/? +5.3 +2.5 82 +1 +1 1011.8 863.2
00 20.04 З 6 30 км 8/8 1500 м
[]
+9.0 +4.0 71 +5 +5 1011.8 863.5 2
03 20.04 В 5 30 км 9/9 1500 м
[]
+8.8 +3.6 70 +6 +6 1013.6 866.5
06 20.04 ЮВ 6 30 км 9/9 1500 м
[]
+12.5 -0.1 42 +10 +11 1011.4 863.2 +4.2
09 20.04 ЮВ 5 30 км 6/6 1500 м
[]
+14.7 +0.9 39 +13 +16 1009.1 865.4
12 20.04 Ю 2 29 км слаб. дождь 9/9 1500 м
[]
+12.0 +4.2 59 +11 +11 1009.2 862.0 0.2
15 20.04 З 6 30 км в посл. час дождь н/о +9.2 +3.8 69 +6 +6 1011.4 864.8
18 20.04 З 6 30 км слаб. морось {дождь} ?/? +7.6 +3.8 77 +3 +3 1010.8 863.2 +15.1 0.1
21 20.04 З 7 30 км н/о +7.1 +2.2 71 +3 +3 1009.3 862.0
00 21.04 СЗ 7 30 км 4/4 1500 м
[]
+6.4 +1.5 71 +2 +2 1011.1 863.0 0.1
03 21.04 З 8 30 км 9/9 1500 м
[]
+9.9 +0.8 53 +6 +6 1012.3 865.9
06 21.04 З 12 30 км 8/8 1500 м
[]
+11.8 +0.6 46 +8 +8 1011.4 863.5 +6.1
09 21.04 З 10 30 км 6/6 1500 м
[]
+13.8 -0.6 37 +11 +11 1010.0 865.7
12 21.04 З 6 30 км 8/8 1500 м
[]
+11.9 0.0 44 +10 +10 1011.0 862.9
15 21.04 В 2 30 км н/о +7.3 +3.4 76 +5 +5 1013.4 865.6
18 21.04 ЮВ 3 30 км в посл. час дождь {морось} ?/? +5.5 +3.0 84 +2 +2 1013.4 864.7 +14.6
21 21.04 В 2 30 км слаб. дождь н/о +5.4 +2.9 84 +3 +3 1012.1 863.5
00 22.04 В 2 16 км слаб. дождь 10/10 1500 м
[]
+4.7 +3.4 91 +2 +2 1013.8 864.9 0.3
03 22.04 В 2 30 км в посл. час дождь {морось} н/о +4.6 +3.6 93 +2 +2 1016.7 867.1
06 22.04 В 4 17 км слаб. дождь {морось} ?/? +5.1 +3.9 92 +1 +1 1017.1 866.3 +4.3 0.1
09 22.04 В 4 30 км 9/9 1500 м
[]
+5.5 +4.1 91 +1 +2 1017.5 868.2
12 22.04 В 3 28 км 10/10 1500 м
[]
+6.0 +4.5 90 +3 +3 1018.2 867.2 0.0
15 22.04 СВ 1 30 км н/о +4.6 +3.3 91 +3 +3 1020.3 870.1
18 22.04 В 2 23 км ?/? +4.0 +3.1 94 +1 +1 1020.5 868.8 +6.1
21 22.04 В 2 21 км ?/? +1.5 +0.5 93 -2 -2 1019.8 868.1

 

Местоположение метеостанции Хобоксар (Синьцзян-Уйгурский автономный район, Китай): широта 46.78 долгота 85.72 высота над уровнем моря 1294 м.

В архиве по умолчанию представлена погода в Хобоксаре за последнюю неделю. Архивные данные за месяц целиком и за предыдущие месяцы, начиная с января 2011 года, Вы можете получить, выбрав интересующий диапазон дат из раскрывающегося списка и нажав кнопку "Ввод!".


*Определитесь, кто Вы:
робот инопланетянин человек

Внимание! Время в таблицах - всемирное. Для получения местного времени необходимо прибавить поправку, которая равна 8 ч.

Смотрите также архив погоды в соседних городах и на ближайших метеорологических станциях:

Погода в Зайсане (Восточно-Казахстанская область, Казахстан) (98 км)
Погода в Тасбастау (Восточно-Казахстанская область, Казахстан) (101 км)
Погода в Карабулаке (Восточно-Казахстанская область, Казахстан) (116 км)
Погода в Боране (Восточно-Казахстанская область, Казахстан) (142 км)
Погода в Карамае (Синьцзян-Уйгурский автономный район, Китай) (147 км)
Погода в Кабе (Синьцзян-Уйгурский автономный район, Китай) (149 км)
Погода в Тугыле (Восточно-Казахстанская область, Казахстан) (156 км)
Погода в Акжаре (Восточно-Казахстанская область, Казахстан) (178 км)
Погода в Теректы (Восточно-Казахстанская область, Казахстан) (182 км)
Погода в Алтае (Синьцзян-Уйгурский автономный район, Китай) (207 км)

Пояснения к столбцам:

Ветер - указаны скорость ветра в м/с - средняя за 10 мин, порывы в срок и между сроками (в фигурных скобках) и направление, откуда дует ветер: С - северный, СВ - северо-восточный, В - восточный, ЮВ - юго-восточный, Ю - южный, ЮЗ - юго-западный, З - западный, СЗ - северо-западный.
Видимость - горизонтальная дальность видимости в метрах или километрах. При видимости от 1 до 10 км при отсутствии осадков обычно наблюдается дымка, при ухудшении видимости до 1 км и менее - туман. В сухую погоду видимость может ухудшаться дымом, пылью или мглою.
Явления - указаны атмосферные явления, наблюдавшиеся в срок или в последний час перед сроком; фигурными скобками обозначены явления, наблюдавшиеся между сроками (за 1-3 часа до срока); квадратными скобками обозначены град или гололедные отложения с указанием их диаметра в мм.
Облачность - указаны через наклонную черту общая и нижняя облачность в баллах и высота нижней границы облаков в метрах; квадратными скобками обозначены формы облаков: Ci - перистые, Cs - перисто-слоистые, Cc - перисто-кучевые, Ac - высококучевые, As - высокослоистые, Sc - слоисто-кучевые, Ns - слоисто-дождевые, Cu - кучевые, Cb - кучево-дождевые. Подробнее классификацию облаков см. в Атласе облаков (PDF).
T - Температура воздуха - температура, измеренная на высоте 2 м над землей.
Td - Температура точки росы - температура, при понижении до которой содержащийся в воздухе водяной пар достигнет насыщения.
f - Относительная влажность воздуха - влажноcть воздуха, измеренная на высоте 2 м над землей.
Te - Эффективная температура - температура, которую ощущает одетый по сезону человек в тени. Характеристика душности погоды. При расчете учитывается влияние влажности воздуха и скорости ветра на теплоощущения человека.
Tes - Эффективная температура на солнце - температура, которую ощущает человек, с поправкой на солнечный нагрев. Характеристика знойности погоды. Зависит от высоты солнца над горизонтом, облачности и скорости ветра. Ночью, в пасмурную погоду, а также при ветре 12 м/с и более поправка равна нулю.
P - Атмосферное давление - приведенное к уровню моря атмосферное давление.
Po - Атмосферное давление - измеренное на уровне метеостанции атмосферное давление.
Tmin - Минимальная температура - минимум температуры воздуха на высоте 2 м над землей.
Tmax - Максимальная температура - максимум температуры воздуха на высоте 2 м над землей.
R - Количество осадков - Количество выпавших осадков за период времени, мм. При наведении курсора мыши на число - период времени, за который выпало указанное количество осадков.
R24 - Количество осадков - Количество выпавших осадков за 24 часа, мм.
S - Снежный покров - Высота снежного покрова, см. При наведении курсора мыши на число - состояние снежного покрова и степень покрытия местности в баллах.